DK7LH-6 Weather Reports


time (UTC)temp
C
wind
direction
speed
KPH
gust
KPH
rain 1hr
cm
rain 24hr
cm
rain mn
cm
humidity
%
barometer
mb
20260507060033 7 52 3.2 11.3 0.00 0.51 0.00 95 1013.2
20260507054606 7 25 3.2 11.3 0.00 0.51 0.00 96 1013.0
20260507053036 7 46 3.2 11.3 0.00 0.51 0.00 96 1013.0
20260507051607 7 20 1.6 6.4 0.00 0.51 0.00 97 1012.7
20260507050037 6 7 3.2 9.7 0.00 0.51 0.00 97 1012.4
20260507044609 6 22 4.8 11.3 0.00 0.51 0.00 97 1012.5
20260507043039 6 25 0.0 1.6 0.00 0.51 0.00 97 1012.3
20260507041540 6 7 1.6 4.8 0.00 0.51 0.00 97 1012.2
20260507040113 6 15 3.2 6.4 0.00 0.51 0.00 97 1012.1
20260507034543 5 25 1.6 4.8 0.00 0.51 0.00 96 1011.9
20260507033114 5 13 1.6 4.8 0.00 0.51 0.00 96 1011.8
20260507031544 5 23 1.6 4.8 0.00 0.51 0.00 96 1011.6
20260507030116 5 0.0 0.0 0.00 0.51 0.00 95 1011.6
20260507024546 5 14 3.2 4.8 0.00 0.51 0.00 95 1011.5
20260507023016 6 11 4.8 6.4 0.00 0.51 0.00 95 1011.3
20260507021548 6 25 3.2 6.4 0.00 0.51 0.00 94 1011.3
20260507020019 6 23 4.8 6.4 0.00 0.51 0.00 94 1011.1
20260507014550 6 21 3.2 4.8 0.00 0.51 0.00 94 1011.1
20260507013020 6 19 3.2 4.8 0.00 0.51 0.00 94 1011.0
20260507011552 6 19 3.2 4.8 0.00 0.51 0.00 94 1011.0
20260507010022 6 27 0.0 1.6 0.00 0.51 0.00 94 1010.9
20260507004554 6 33 1.6 4.8 0.00 0.51 0.00 93 1010.7
20260507003024 7 22 1.6 6.4 0.00 0.51 0.00 94 1010.8
20260507001556 7 20 1.6 4.8 0.00 0.51 0.00 94 1010.7
20260507000026 7 16 3.2 4.8 0.00 0.51 0.00 95 1010.7
20260506234558 8 14 4.8 11.3 0.00 0.51 0.00 95 1010.5
20260506233028 8 18 1.6 4.8 0.00 0.51 0.00 96 1010.4
20260506231600 8 9 3.2 6.4 0.00 0.51 0.00 96 1010.5
20260506230030 8 339 4.8 6.4 0.00 0.51 0.00 96 1010.3
20260506224602 8 335 3.2 4.8 0.00 0.51 0.00 96 1010.4
20260506223032 9 320 3.2 4.8 0.00 0.51 0.00 96 1010.3
20260506221604 9 357 3.2 6.4 0.00 0.51 0.00 96 1010.3
20260506220036 9 311 3.2 6.4 0.00 0.51 0.00 96 1010.3
20260506214654 9 340 4.8 9.7 0.00 0.51 0.51 97 1010.2
20260506213139 9 31 1.6 4.8 0.00 0.51 0.51 97 1010.1
20260506211609 9 0.0 0.0 0.00 0.51 0.51 96 1009.9
20260506210111 9 0.0 0.0 0.00 0.51 0.51 96 1009.9
20260506204613 9 0.0 0.0 0.00 0.51 0.51 96 1009.9
20260506203040 9 0.0 0.0 0.00 0.51 0.51 96 1009.8
20260506201619 9 0.0 0.0 0.00 0.51 0.51 95 1009.9
20260506200148 9 0.0 0.0 0.00 0.51 0.51 95 1009.8
20260506194618 9 0.0 0.0 0.00 0.51 0.51 94 1009.8
20260506193116 9 58 0.0 1.6 0.00 0.51 0.51 94 1009.6
20260506191546 9 0.0 0.0 0.00 0.51 0.51 93 1009.4
20260506190118 9 0.0 0.0 0.00 0.51 0.51 93 1009.2
20260506184547 9 0.0 0.0 0.00 0.51 0.51 92 1009.1
20260506183017 9 9 0.0 1.6 0.00 0.51 0.51 92 1009.1
20260506181549 9 21 1.6 1.6 0.00 0.51 0.51 92 1009.0
20260506180019 9 13 0.0 1.6 0.03 0.51 0.51 92 1008.9
20260506174551 9 6 1.6 4.8 0.03 0.51 0.51 92 1008.9
20260506173021 8 15 3.2 6.4 0.03 0.51 0.51 92 1008.8
20260506171553 8 358 4.8 9.7 0.03 0.51 0.51 92 1008.7
20260506170023 8 101 4.8 6.4 0.03 0.48 0.48 91 1008.6
20260506164556 9 69 1.6 1.6 0.03 0.48 0.48 91 1008.5
20260506163026 9 61 1.6 1.6 0.05 0.48 0.48 91 1008.6
20260506161557 9 50 1.6 1.6 0.08 0.48 0.48 92 1008.6
20260506160027 9 31 0.0 1.6 0.08 0.46 0.46 92 1008.7
20260506154559 9 18 0.0 1.6 0.10 0.46 0.46 91 1008.7
20260506153029 9 33 1.6 4.8 0.10 0.43 0.43 91 1008.8
20260506151601 9 22 3.2 6.4 0.10 0.41 0.41 90 1008.8
20260506150031 9 40 1.6 4.8 0.10 0.38 0.38 90 1008.8
20260506144603 9 36 3.2 6.4 0.13 0.36 0.36 90 1008.6
20260506143033 9 30 1.6 6.4 0.13 0.33 0.33 89 1008.6
20260506141606 8 46 1.6 4.8 0.13 0.30 0.30 89 1008.6
20260506140036 8 31 1.6 4.8 0.13 0.28 0.28 88 1008.6
20260506134607 8 23 1.6 4.8 0.08 0.23 0.23 87 1008.6
20260506133037 8 9 3.2 9.7 0.08 0.20 0.20 86 1008.7
20260506131609 8 6 4.8 11.3 0.08 0.18 0.18 85 1008.5
20260506130039 8 352 3.2 9.7 0.08 0.15 0.15 85 1008.5
20260506124611 9 26 3.2 11.3 0.08 0.15 0.15 85 1008.4
20260506123112 9 25 1.6 4.8 0.08 0.13 0.13 85 1008.3
20260506121542 9 33 3.2 6.4 0.08 0.10 0.10 86 1008.3
20260506120114 9 54 1.6 11.3 0.05 0.08 0.08 84 1008.2
20260506114544 9 53 1.6 4.8 0.05 0.08 0.08 84 1008.1
20260506113116 9 359 3.2 9.7 0.05 0.05 0.05 81 1008.1
20260506111546 9 81 4.8 11.3 0.03 0.03 0.03 79 1008.2
20260506110016 9 50 3.2 6.4 0.03 0.03 0.03 80 1008.0
20260506104548 9 30 3.2 9.7 0.03 0.03 0.03 78 1008.0
20260506103018 10 50 1.6 6.4 0.00 0.00 0.00 79 1008.0
20260506101550 10 54 3.2 6.4 0.00 0.00 0.00 78 1008.0
20260506100020 10 69 1.6 6.4 0.00 0.00 0.00 75 1008.0
20260506094552 10 79 3.2 6.4 0.00 0.00 0.00 73 1007.8
20260506093022 10 33 4.8 11.3 0.00 0.00 0.00 72 1007.9
20260506091554 10 43 6.4 14.5 0.00 0.00 0.00 70 1007.7
20260506090024 10 28 3.2 9.7 0.00 0.00 0.00 70 1007.6
20260506084556 10 35 3.2 9.7 0.00 0.00 0.00 71 1007.6
20260506083026 10 31 4.8 14.5 0.00 0.00 0.00 72 1007.5
20260506081558 10 71 6.4 20.9 0.00 0.00 0.00 69 1007.2
20260506073030 10 28 6.4 16.1 0.00 0.00 0.00 75 1007.0
20260506071602 9 24 6.4 11.3 0.00 0.00 0.00 76 1006.9
20260506070104 9 29 6.4 11.3 0.00 0.00 0.00 78 1006.9
20260506061536 8 34 6.4 20.9 0.00 0.00 0.00 82 1006.8